[[{"header":{"parameterUnit":"m.s-1","parameterCategory":1,"la1":30.2991,"la2":30.254,"lo1":-89.0895,"lo2":-89.0444,"dy":0.0017,"dx":0.0017,"nx":28,"ny":28,"refTime":"2023-09-17T21:00:00:Z","depth":0,"parameterNumber":2,"parameterNumberName":"U-component_of_WINDS"},"data":[0,0,0,0,0,0,0,0,0,0,0,0,0,0,0,0,0,0,0,0,0,0,0,0,0,0,0,0,0,0,0,0,0,0,0,0,0,0,0,0,0,0,0,0,0,0,0,0,0,0,0,0,0,0,0,0,0,0,-0.3382,-0.3382,0,-0.3345,-0.3345,-0.3344,-0.3247,-0.3245,-0.3243,-0.3241,-0.3205,-0.3206,-0.3207,0,0,0,0,0,0,0,0,0,0,0,0,0,-0.3372,-0.3373,-0.3383,-0.3382,-0.3382,-0.3345,-0.3345,-0.3344,-0.3247,-0.3245,-0.3242,-0.324,-0.3205,-0.3206,-0.3207,0,0,0,0,0,0,0,0,0,0,0,0,0,-0.336,-0.3373,-0.3383,-0.3329,-0.3324,-0.3345,-0.3345,-0.3344,-0.3248,-0.3245,-0.3242,-0.3239,-0.3205,-0.3206,-0.3208,-0.3279,0,0,-0.3212,-0.3213,0,0,0,0,0,0,0,0,-0.3361,-0.3361,-0.3337,-0.3333,-0.3327,-0.3298,-0.3328,-0.3323,-0.3249,-0.3277,-0.3241,-0.3237,-0.3239,-0.3237,-0.3237,-0.3278,-0.3276,-0.3212,-0.3213,-0.3214,-0.3214,0,0,0,0,0,0,0,-0.3362,-0.3362,-0.3368,-0.3337,-0.3331,-0.3307,-0.3302,-0.3326,-0.3276,-0.3274,-0.3267,-0.3264,-0.3235,-0.3236,-0.3236,-0.3276,-0.3212,-0.3213,-0.3214,-0.3215,-0.3375,-0.3378,0,0,0,0,0,0,-0.337,-0.3363,-0.3369,-0.3367,-0.3336,-0.331,-0.3304,-0.331,-0.3275,-0.3267,-0.3266,-0.3259,-0.3235,-0.3234,-0.3234,-0.3318,-0.3214,-0.3215,-0.3216,-0.3372,-0.3376,-0.3379,0,0,0,0,0,0,-0.337,-0.3371,-0.337,-0.3363,-0.3361,-0.3314,-0.3321,-0.3311,-0.3312,-0.3269,-0.326,-0.3276,-0.3232,-0.3232,-0.3269,-0.3315,-0.3216,-0.3217,-0.3368,-0.3373,-0.3378,-0.3485,0,0,0,0,0,0,-0.337,-0.3372,-0.3398,-0.3364,-0.3362,-0.3406,-0.3324,-0.3313,-0.3314,-0.3305,-0.3276,-0.3269,-0.323,-0.3267,-0.3271,-0.3315,-0.3218,-0.3363,-0.337,-0.3376,-0.3477,-0.3493,-0.3507,0,0,0,0,0,-0.337,-0.343,-0.34,-0.3402,-0.3393,-0.3409,-0.3407,-0.3361,-0.3318,-0.3345,-0.3318,-0.327,-0.3309,-0.3272,-0.3275,-0.3321,-0.336,-0.3368,-0.3375,-0.347,-0.349,-0.3506,0,0,0,0,0,0,-0.3472,-0.3425,-0.3391,-0.3441,-0.343,-0.3392,-0.3424,-0.3383,-0.3383,-0.3375,-0.3317,-0.3312,-0.3358,-0.3342,-0.3302,-0.3389,-0.3327,-0.3335,-0.3398,-0.3416,-0.3431,-0.3435,-0.322,0,0,0,0,0,-0.35,-0.3515,-0.3473,-0.3522,-0.3518,-0.3472,-0.3477,-0.3442,-0.3428,-0.3423,-0.3399,-0.3388,-0.3397,-0.3405,-0.3412,-0.3473,-0.3467,-0.3506,-0.3521,-0.3533,-0.3542,-0.3576,-0.3594,-0.3404,-0.3404,-0.3404,0,0,-0.3559,-0.3535,-0.3548,-0.3542,-0.3529,-0.3548,-0.3469,-0.3491,-0.3505,-0.3427,-0.3461,-0.3443,-0.3426,-0.3477,-0.3498,-0.3465,-0.3593,-0.3543,-0.3553,-0.3555,-0.3586,-0.3604,-0.362,-0.3409,-0.3408,-0.3408,0,0,-0.3675,-0.3658,-0.3698,-0.3686,-0.3667,-0.3636,-0.3646,-0.3614,-0.3599,-0.3632,-0.3574,-0.359,-0.3607,-0.3599,-0.3597,-0.3711,-0.3668,-0.3715,-0.3793,-0.3827,-0.3842,-0.3855,-0.3898,-0.3914,-0.3723,-0.3723,-0.3723,0,-0.3751,-0.3776,-0.3723,-0.375,-0.375,-0.3679,-0.3719,-0.3711,-0.3695,-0.3698,-0.3661,-0.3683,-0.3666,-0.3715,-0.3743,-0.3743,-0.3754,-0.3719,-0.3843,-0.3856,-0.3867,-0.3908,-0.3925,-0.3729,-0.3729,-0.3728,-0.3727,0,-0.3872,-0.389,-0.3924,-0.3911,-0.3914,-0.3948,-0.3901,-0.3911,-0.3876,-0.385,-0.3885,-0.3863,-0.3865,-0.3873,-0.3839,-0.3917,-0.3898,-0.3853,-0.379,-0.3893,-0.393,-0.3945,-0.3738,-0.3736,-0.3734,-0.3733,0,0,-0.4054,-0.401,-0.4024,-0.4018,-0.3992,-0.4005,-0.4036,-0.4037,-0.4048,-0.4039,-0.4065,-0.4082,-0.4041,-0.4039,-0.4002,-0.4031,-0.4127,-0.3983,-0.3982,-0.4013,-0.4215,-0.4252,-0.4271,-0.4096,-0.4099,-0.4101,-0.4218,0,-0.4166,-0.4216,-0.417,-0.423,-0.4247,-0.4179,-0.4206,-0.4194,-0.417,-0.4182,-0.4155,-0.4169,-0.4112,-0.411,-0.4136,-0.411,-0.4167,-0.41,-0.4123,-0.4124,-0.4132,-0.429,-0.4328,-0.4439,-0.4232,-0.4234,-0.4236,0,-0.4305,-0.4303,-0.4365,-0.4336,-0.4341,-0.4366,-0.4365,-0.4376,-0.4361,-0.4341,-0.4339,-0.4295,-0.4325,-0.4261,-0.4302,-0.4258,-0.4263,-0.4252,-0.4255,-0.4258,-0.4189,-0.43,-0.4473,-0.4491,-0.4258,-0.4256,-0.4254,0,-0.4435,-0.4448,-0.4487,-0.4483,-0.4449,-0.4469,-0.4456,-0.4437,-0.4442,-0.444,-0.4442,-0.4444,-0.4446,-0.4449,-0.4408,-0.4364,-0.4455,-0.4387,-0.4442,-0.4444,-0.4467,-0.4467,-0.4647,-0.4466,-0.4465,-0.4465,-0.4465,0,-0.4568,-0.4609,-0.4545,-0.457,-0.4614,-0.456,-0.4606,-0.4586,-0.457,-0.459,-0.4531,-0.4551,-0.4493,-0.4508,-0.4475,-0.4516,-0.4516,-0.4503,-0.4495,-0.4511,-0.4513,-0.4516,-0.4509,-0.4469,-0.4468,-0.4468,-0.4467,0,-0.4723,-0.4681,-0.4719,-0.4684,-0.4676,-0.4711,-0.4681,-0.4703,-0.4674,-0.4701,-0.4704,-0.466,-0.4675,-0.4632,-0.464,-0.4618,-0.4679,-0.4655,-0.4684,-0.4679,-0.4737,-0.4734,-0.4929,-0.4953,-0.4753,-0.4755,-0.4757,0,-0.4812,-0.4842,-0.481,-0.4819,-0.4809,-0.4824,-0.4828,-0.4776,-0.4783,-0.4768,-0.4793,-0.4802,-0.4807,-0.4833,-0.4803,-0.4809,-0.4788,-0.4856,-0.4789,-0.4804,-0.4793,-0.4793,-0.4797,-0.4871,-0.4873,-0.4875,-0.4877,0,-0.4975,-0.4953,-0.4961,-0.4962,-0.4969,-0.4967,-0.4961,-0.4973,-0.4916,-0.4927,-0.4941,-0.4945,-0.4953,-0.4964,-0.4964,-0.4951,-0.4907,-0.4898,-0.4911,-0.493,-0.4947,-0.4942,-0.4726,-0.4894,-0.4893,-0.4891,-0.489,-0.489,-0.5102,-0.5126,-0.5108,-0.5119,-0.5109,-0.5106,-0.5125,-0.5099,-0.511,-0.5112,-0.508,-0.5101,-0.5086,-0.5081,-0.5073,-0.509,-0.5059,-0.5078,-0.5083,-0.509,-0.5101,-0.4941,-0.5089,-0.5088,-0.5088,-0.5087,-0.5087,0,-0.5265,-0.525,-0.5261,-0.5255,-0.5264,-0.5219,-0.521,-0.5222,-0.5241,-0.523,-0.5236,-0.5253,-0.5264,-0.5234,-0.524,-0.526,-0.5239,-0.5263,-0.5263,-0.5262,-0.5127,-0.5116,-0.528,-0.528,-0.528,-0.528,-0.528,-0.528,-0.5352,-0.5392,-0.5368,-0.5403,-0.5387,-0.5407,-0.5407,-0.5404,-0.5395,-0.5417,-0.5425,-0.5405,-0.5387,-0.5392,-0.54,-0.5391,-0.5398,-0.543,-0.5415,-0.529,-0.5271,-0.5253,-0.5243,-0.5431,-0.5431,-0.5548,-0.555,-0.555]},{"header":{"parameterUnit":"m.s-1","parameterCategory":1,"la1":30.2991,"la2":30.254,"lo1":-89.0895,"lo2":-89.0444,"dy":0.0017,"dx":0.0017,"nx":28,"ny":28,"refTime":"2023-09-17T21:00:00:Z","depth":0,"parameterNumber":3,"parameterNumberName":"V-component_of_WINDS"},"data":[0,0,0,0,0,0,0,0,0,0,0,0,0,0,0,0,0,0,0,0,0,0,0,0,0,0,0,0,0,0,0,0,0,0,0,0,0,0,0,0,0,0,0,0,0,0,0,0,0,0,0,0,0,0,0,0,0,0,-2.1247,-2.1248,0,-2.1322,-2.1323,-2.1324,-2.1391,-2.1391,-2.1392,-2.1393,-2.1469,-2.1471,-2.1472,0,0,0,0,0,0,0,0,0,0,0,0,0,-2.1162,-2.1163,-2.1247,-2.1248,-2.1249,-2.1322,-2.1323,-2.1324,-2.1391,-2.1392,-2.1392,-2.1393,-2.1469,-2.1471,-2.1472,0,0,0,0,0,0,0,0,0,0,0,0,0,-2.1214,-2.1163,-2.1247,-2.1291,-2.1295,-2.1322,-2.1323,-2.1324,-2.139,-2.1392,-2.1393,-2.1394,-2.1469,-2.147,-2.1472,-2.1461,0,0,-2.1478,-2.1479,0,0,0,0,0,0,0,0,-2.1211,-2.1217,-2.1283,-2.1288,-2.1293,-2.1348,-2.1321,-2.137,-2.139,-2.1354,-2.1393,-2.1394,-2.1428,-2.1433,-2.1445,-2.1464,-2.1468,-2.1478,-2.148,-2.1481,-2.1481,0,0,0,0,0,0,0,-2.1207,-2.1214,-2.1277,-2.1284,-2.129,-2.1307,-2.1316,-2.1331,-2.1384,-2.1357,-2.1363,-2.1371,-2.1431,-2.1443,-2.1447,-2.1469,-2.1478,-2.148,-2.1481,-2.1482,-2.1485,-2.1484,0,0,0,0,0,0,-2.1197,-2.1211,-2.1274,-2.1279,-2.1254,-2.1308,-2.1317,-2.1329,-2.1384,-2.1393,-2.1369,-2.1373,-2.1439,-2.1445,-2.145,-2.1443,-2.148,-2.1482,-2.1483,-2.1487,-2.1485,-2.1484,0,0,0,0,0,0,-2.1195,-2.1202,-2.1271,-2.1246,-2.1256,-2.1308,-2.1321,-2.133,-2.1342,-2.1393,-2.1403,-2.1372,-2.144,-2.1447,-2.1458,-2.1446,-2.1483,-2.1485,-2.1488,-2.1486,-2.1485,-2.1425,0,0,0,0,0,0,-2.1192,-2.1201,-2.1196,-2.1246,-2.1257,-2.1277,-2.132,-2.1331,-2.1345,-2.1351,-2.1398,-2.1406,-2.1442,-2.1455,-2.146,-2.1449,-2.1487,-2.1489,-2.1487,-2.1485,-2.1429,-2.1422,-2.1416,0,0,0,0,0,-2.1189,-2.1176,-2.1196,-2.1203,-2.1253,-2.1277,-2.1283,-2.1324,-2.1344,-2.1341,-2.1374,-2.1405,-2.1446,-2.1456,-2.1462,-2.1451,-2.149,-2.1488,-2.1485,-2.1432,-2.1423,-2.1416,0,0,0,0,0,0,-2.1123,-2.1183,-2.1206,-2.1209,-2.1237,-2.1288,-2.1285,-2.1314,-2.1337,-2.1342,-2.1391,-2.1401,-2.1407,-2.143,-2.144,-2.1445,-2.1473,-2.1471,-2.1429,-2.1422,-2.1416,-2.1411,-2.1488,0,0,0,0,0,-2.1109,-2.1123,-2.1175,-2.1172,-2.1186,-2.1232,-2.1244,-2.1274,-2.1305,-2.1317,-2.1351,-2.138,-2.14,-2.1412,-2.1433,-2.1432,-2.1444,-2.1428,-2.1422,-2.1416,-2.1415,-2.1419,-2.1413,-2.1476,-2.1476,-2.1476,0,0,-2.108,-2.1115,-2.112,-2.116,-2.1186,-2.12,-2.1242,-2.1255,-2.1266,-2.1319,-2.1332,-2.1358,-2.1394,-2.14,-2.1404,-2.1419,-2.14,-2.1413,-2.1409,-2.1411,-2.1416,-2.141,-2.1404,-2.1474,-2.1475,-2.1475,0,0,-2.1035,-2.1062,-2.1064,-2.1089,-2.1128,-2.1159,-2.116,-2.1207,-2.1226,-2.124,-2.1281,-2.1295,-2.1327,-2.1352,-2.1369,-2.1336,-2.1366,-2.1341,-2.1309,-2.1312,-2.1307,-2.1303,-2.1293,-2.1288,-2.1339,-2.1339,-2.1339,0,-2.0994,-2.1017,-2.1061,-2.1072,-2.1089,-2.1139,-2.1142,-2.1164,-2.1207,-2.1218,-2.1235,-2.1278,-2.1306,-2.1319,-2.1311,-2.1322,-2.1326,-2.1336,-2.1304,-2.13,-2.1297,-2.1288,-2.1284,-2.1336,-2.1336,-2.1336,-2.1337,0,-2.0967,-2.0982,-2.0979,-2.1021,-2.1037,-2.1044,-2.109,-2.1101,-2.1129,-2.1159,-2.1174,-2.1209,-2.1239,-2.1244,-2.1271,-2.1262,-2.127,-2.1294,-2.1324,-2.1287,-2.128,-2.1276,-2.1331,-2.1332,-2.1333,-2.1334,0,0,-2.0882,-2.0949,-2.0948,-2.0968,-2.1015,-2.1028,-2.1038,-2.1068,-2.1078,-2.1106,-2.1116,-2.1143,-2.1167,-2.1186,-2.1216,-2.1218,-2.1193,-2.1243,-2.1245,-2.1234,-2.1187,-2.117,-2.1165,-2.1212,-2.1212,-2.1212,-2.1185,0,-2.0847,-2.0867,-2.0908,-2.0916,-2.0932,-2.098,-2.0989,-2.1019,-2.1047,-2.1065,-2.1097,-2.1116,-2.1144,-2.1157,-2.1161,-2.1195,-2.1184,-2.1197,-2.1224,-2.1225,-2.1215,-2.1161,-2.1143,-2.1116,-2.1182,-2.1182,-2.1181,0,-2.0808,-2.0835,-2.0844,-2.0892,-2.0901,-2.0908,-2.094,-2.0956,-2.0991,-2.1012,-2.1034,-2.1068,-2.1082,-2.1108,-2.1128,-2.1136,-2.115,-2.1168,-2.1168,-2.1174,-2.1202,-2.1167,-2.1108,-2.1105,-2.1177,-2.1177,-2.1177,0,-2.0748,-2.0786,-2.0798,-2.0814,-2.0869,-2.0874,-2.0897,-2.0934,-2.095,-2.0978,-2.0989,-2.1017,-2.1033,-2.1055,-2.1096,-2.1111,-2.1113,-2.1142,-2.1132,-2.1131,-2.1132,-2.1131,-2.1076,-2.1137,-2.1137,-2.1137,-2.1137,0,-2.0705,-2.071,-2.0773,-2.078,-2.0787,-2.0834,-2.084,-2.0867,-2.09,-2.0914,-2.0956,-2.0969,-2.1021,-2.104,-2.1072,-2.1086,-2.1092,-2.111,-2.1119,-2.1108,-2.1106,-2.1118,-2.1122,-2.1136,-2.1136,-2.1136,-2.1137,0,-2.0641,-2.0682,-2.0699,-2.075,-2.0763,-2.0767,-2.0811,-2.0821,-2.0852,-2.087,-2.0876,-2.0926,-2.095,-2.0993,-2.1029,-2.1051,-2.1059,-2.1073,-2.1047,-2.1053,-2.1042,-2.1043,-2.0994,-2.0991,-2.1051,-2.1051,-2.105,0,-2.0611,-2.0616,-2.0669,-2.0682,-2.0704,-2.0724,-2.0741,-2.0787,-2.0803,-2.0845,-2.085,-2.0878,-2.0903,-2.094,-2.0979,-2.1008,-2.1024,-2.1005,-2.1029,-2.1018,-2.1026,-2.1026,-2.1028,-2.1,-2.0999,-2.0998,-2.0998,0,-2.0556,-2.0577,-2.06,-2.0631,-2.065,-2.0676,-2.0705,-2.0713,-2.0766,-2.0782,-2.0808,-2.0828,-2.0866,-2.0894,-2.0928,-2.0953,-2.0985,-2.099,-2.099,-2.0979,-2.0965,-2.0974,-2.1035,-2.0991,-2.0992,-2.0992,-2.0993,-2.0993,-2.0509,-2.0517,-2.0556,-2.0581,-2.0608,-2.0634,-2.0646,-2.0679,-2.0702,-2.0737,-2.0763,-2.0787,-2.0825,-2.0875,-2.0897,-2.0918,-2.0932,-2.0931,-2.0931,-2.0931,-2.0927,-2.096,-2.0924,-2.0924,-2.0925,-2.0925,-2.0925,0,-2.0458,-2.0486,-2.0508,-2.0548,-2.0568,-2.0596,-2.0629,-2.0644,-2.0665,-2.0698,-2.0722,-2.0753,-2.078,-2.0822,-2.0853,-2.0862,-2.0877,-2.0869,-2.0869,-2.0875,-2.0911,-2.091,-2.0856,-2.0856,-2.0856,-2.0856,-2.0856,-2.0856,-2.0434,-2.0449,-2.0475,-2.0504,-2.0532,-2.0557,-2.0574,-2.0599,-2.0625,-2.0658,-2.0681,-2.0708,-2.0745,-2.0779,-2.0806,-2.0818,-2.0829,-2.0816,-2.0832,-2.0866,-2.0872,-2.0878,-2.0877,-2.0817,-2.0817,-2.0794,-2.0794,-2.0794]}]]